Flag for U.S.A. Weather past 2 weeks in Stamford, Connecticut, U.S.A.

Now
73 °F

Clear.


Feels Like: 70 °F
Forecast: 71 / 88 °F
Wind: No wind

Location: Westchester County Airport

Current Time: Sep 2, 2014 at 7:16:22 AM

Latest Report: Sep 2, 2014 at 5:56 AM


Visibility: 8 mi

Pressure: 29.88 "Hg

Humidity: 94%

Dew point: 71 °F

Location of StamfordLocation

Historic Weather in Stamford — Graph

°F

Stamford temperature yesterday

Maximum temperature yesterday: 84 °F (at 12:56 PM)
Minimum temperature yesterday: 73 °F (at 2:56 AM)
Average temperature yesterday: 77 °F

Past Weeks' High & Low Weather Summary

 TemperatureHumidityPressure
High88 °F (Aug 27, 2:56 PM)100% (Aug 22, 6:03 AM)30.27 "Hg (Aug 22, 6:03 AM)
Low56 °F (Aug 18, 5:56 AM)36% (Aug 28, 4:56 PM)29.82 "Hg (Aug 18, 4:56 PM)
Average71 °F72%30.03 "Hg
* Reported Aug 18 5:56 AM — Sep 2 5:56 AM, Stamford, Weather by CustomWeather, © 2014

Note: Actual official high and low records may vary slightly from our data, if they occured in-between our weather recording intervals... More about our weather records

Advertising

Stamford weather history for previous 24 hours

 ConditionsComfort  
Time TempWeatherWind HumidityBarometerVisibility
5:56 AM
Sep 2
73 °FClear.No wind94%29.88 "Hg8 mi
4:56 AM74 °FClear.3 mph94%29.88 "Hg8 mi
3:56 AM73 °FFog.3 mph94%29.89 "Hg9 mi
2:56 AM71 °FFog.No wind96%29.90 "Hg9 mi
1:56 AM72 °FFog.No wind97%29.91 "Hg5 mi
12:56 AM73 °FFog.No wind94%29.92 "Hg5 mi
11:56 PM
Sep 1
73 °FFog.No wind97%29.93 "Hg5 mi
10:56 PM73 °FFog.No wind97%29.93 "Hg5 mi
9:56 PM74 °FFog.No wind94%29.93 "Hg6 mi
8:56 PM75 °FPassing clouds.No wind94%29.93 "Hg7 mi
7:56 PM76 °FScattered clouds.3 mph91%29.93 "Hg7 mi
6:56 PM77 °FScattered clouds.3 mph90%29.92 "Hg10 mi
5:56 PM82 °FPartly sunny.8 mph70%29.92 "Hg10 mi
4:56 PM83 °FBroken clouds.3 mph65%29.92 "Hg10 mi
3:56 PM83 °FBroken clouds.No wind63%29.93 "Hg10 mi
2:56 PM84 °FPartly sunny.No wind61%29.94 "Hg10 mi
1:56 PM83 °FMostly cloudy.No wind63%29.95 "Hg10 mi
12:56 PM84 °FPartly sunny.6 mph65%29.96 "Hg10 mi
11:56 AM81 °FBroken clouds.8 mph72%29.97 "Hg10 mi
10:56 AM81 °FScattered clouds.No wind69%29.98 "Hg10 mi
9:56 AM80 °FScattered clouds.3 mph76%29.98 "Hg10 mi
8:56 AM77 °FScattered clouds.6 mph85%29.99 "Hg10 mi
7:56 AM74 °FFog.5 mph94%29.99 "Hg4 mi
Weather by CustomWeather, © 2014

See weather overviewHow to use our weather pages